Regional Weather Roundup
Issued by NWS

Home | Current Version | Previous Version | Text Only | Print | Product List | Glossary Off
Versions: 1 2 3 4 5 6 7 8 9 10 11 12 13 14 15 16 17 18 19 20 21 22 23 24 25 26 27 28 29 30 31 32 33 34 35 36 37 38 39 40 41 42 43 44 45 46 47 48 49 50

000
ASUS43 KOAX 260202
RWRNE

WEATHER ROUNDUP FOR NEBRASKA
NATIONAL WEATHER SERVICE OMAHA NE
800 PM CST TUE NOV 25 2014

NOTES: SATELLITE DATA IS BEING USED TO AUGMENT CLOUD COVER ABOVE
       12000 FEET.
       "FAIR" INDICATES FEW OR NO CLOUDS BELOW 12,000 FEET WITH NO
       SIGNIFICANT WEATHER AND/OR OBSTRUCTIONS TO VISIBILITY.

  * THESE STATIONS DO NOT REPORT WEATHER SUCH AS RAIN...SNOW OR FOG.

NEZ001>004-019>022-054>056-260300-
NEBRASKA PANHANDLE

CITY           SKY/WX    TMP DP  RH WIND       PRES   REMARKS
SCOTTSBLUFF    CLOUDY    34  32  92 W8        29.96R WCI  27
ALLIANCE       CLOUDY    35  30  82 NW14      29.91R WCI  26
CHADRON        CLOUDY    47  29  49 W22G29    29.93R
SIDNEY         LGT SNOW  33  31  92 NW15      29.95R FOG     WCI  23
$$

NEZ057>060-069>072-079>082-260300-
SOUTHWEST NEBRASKA

CITY           SKY/WX    TMP DP  RH WIND       PRES   REMARKS
NORTH PLATTE   CLOUDY    41  29  62 NW8       29.89R
IMPERIAL       CLOUDY    41  32  70 N17       29.91R
MCCOOK         CLOUDY    47  25  42 NW20      29.89R
$$

NEZ005>010-023>029-035>040-094-260300-
NORTH CENTRAL NEBRASKA

CITY           SKY/WX    TMP DP  RH WIND       PRES   REMARKS
VALENTINE      MOCLDY    37  31  78 NW17G25   29.85R WCI  27
BROKEN BOW     CLOUDY    41  29  62 NW17G28   29.85R
ORD            CLOUDY    41  29  62 W18G24    29.82R
$$

NEZ041-046>049-061>064-073>077-083>087-260300-
SOUTH CENTRAL NEBRASKA

CITY           SKY/WX    TMP DP  RH WIND       PRES   REMARKS
GRAND ISLAND   CLOUDY    41  23  48 SW8       29.84R
HASTINGS       CLOUDY    42  20  41 SW7       29.85R
KEARNEY *      CLOUDY    39  18  41 SW7       29.87R WCI  34
$$

NEZ011>018-030>034-042>045-260300-
NORTHEAST NEBRASKA

CITY           SKY/WX    TMP DP  RH WIND       PRES   REMARKS
NORFOLK        CLOUDY    39  32  76 E8        29.81F WCI  33
COLUMBUS *     CLOUDY    43  25  49 SE7       29.85S
TEKAMAH        CLOUDY    37  25  61 S5        29.91S WCI  33
$$

NEZ050>053-065>068-078-088>093-260300-
SOUTHEAST NEBRASKA

CITY           SKY/WX    TMP DP  RH WIND       PRES   REMARKS
LINCOLN        CLOUDY    42  25  50 S9        29.90F
OMAHA EPPLEY   CLOUDY    39  25  57 S10       29.93F WCI  32
FALLS CITY     CLOUDY    37  23  56 S10       29.98F WCI  30
$$

NEZ044-045-051>053-067-260300-
OMAHA AREA

CITY           SKY/WX    TMP DP  RH WIND       PRES   REMARKS
OMAHA EPPLEY   CLOUDY    39  25  57 S10       29.93F WCI  32
OFFUTT AFB     CLOUDY    38  24  56 SE14      29.92F WCI  30
$$


USA.gov is the U.S. government's official web portal to all federal, state and local government web resources and services.